Location: Newark
(50.4375°N, 16.6489°E)
Time: 20:06:02
(UTC+00:00)

Envisat - Pass Details

Date: 20 September 2019
Orbit: 764 x 766 km, 98.1° (Epoch: 21 October)

Event Time Altitude Azimuth Distance (km) Brightness Sun altitude
Rises 17:43:54 0° 191° (SSW) 3,222 6.2 -8.2°
Reaches altitude 10° 17:46:25 10° 201° (SSW) 2,300 5.6 -8.6°
Maximum altitude 17:50:58 33° 265° (W) 1,280 5.0 -9.3°
Drops below altitude 10° 17:55:33 10° 329° (NNW) 2,316 6.2 -10.1°
Sets 17:58:06 0° 339° (NNW) 3,247 6.8 -10.5°
